Regional Weather Roundup
Issued by NWS

Home | Current Version | Previous Version | Graphics & Text | Print | Product List | Glossary On
Versions: 1 2 3 4 5 6 7 8 9 10 11 12 13 14 15 16 17 18 19 20 21 22 23 24 25 26 27 28 29 30 31 32 33 34 35 36 37 38 39 40 41 42 43 44 45 46 47 48 49 50
000
ASUS43 KMPX 251510
RWRMN
WEATHER ROUNDUP FOR MINNESOTA
NATIONAL WEATHER SERVICE TWIN CITIES/CHANHASSEN MN
1000 AM CDT TUE APR 25 2017


NOTE: "FAIR" INDICATES FEW OR NO CLOUDS BELOW 12,000 FEET WITH NO
SIGNIFICANT WEATHER AND/OR OBSTRUCTIONS TO VISIBILITY. N/A MEANS
CURRENT SKY AND/OR WEATHER CONDITIONS ARE NOT AVAILABLE.

MNZ060>063-068>070-251600-
   Twin Cities Metro

CITY           SKY/WX    TMP DP  RH WIND       PRES   REMARKS
TWIN CITIES    CLOUDY    53  45  74 S7        29.54R
ST PAUL        PTSUNNY   58  47  66 W8        29.54R
CRYSTAL        PTSUNNY   55  46  71 SW7       29.52R
BLAINE         CLOUDY    61  46  59 SW9       29.52R
LAKEVILLE      CLOUDY    52  45  76 W5        29.53F
EDEN PRAIRIE   CLOUDY    50  46  86 VRB6      29.53S FOG
SOUTH ST PAUL  CLOUDY    58  47  67 SW5       29.53R
LAKE ELMO      PTSUNNY   61  41  48 S9        29.54R
$$
MNZ001>005-007-008-013>017-022>024-027-028-251600-
   Northwest Minnesota

CITY           SKY/WX    TMP DP  RH WIND       PRES   REMARKS
BEMIDJI        CLOUDY    33  33  99 N15G25    29.67F WCI  23
HALLOCK        CLOUDY    32  27  80 N21G26    29.84S WCI  20
ROSEAU         CLOUDY    30  25  80 N16       29.82R WCI  19
WARROAD        CLOUDY    30  27  86 NE16G23   29.82R WCI  19
THIEF RVR FALL CLOUDY    31  28  89 N23       29.77R WCI  18
CROOKSTON      CLOUDY    32  28  86 N13G22    29.79R WCI  22
FOSSTON        CLOUDY    32  32 100 N23       29.71F WCI  19
DETROIT LAKES  CLOUDY    36  36 100 N8        29.66R
MOORHEAD       CLOUDY    34  30  86 N24G30    29.72R WCI  21
PARK RAPIDS    CLOUDY    38  34  85 N16G23    29.62S
MAHNOMEN       CLOUDY    33  32  95 N23G29    29.68R WCI  21
$$
MNZ006-009>011-018-025>026-251600-
   North Central Minnesota

CITY           SKY/WX    TMP DP  RH WIND       PRES   REMARKS
BAUDETTE       CLOUDY    31  27  85 N13       29.76R WCI  21
FLAG ISLAND    CLOUDY    28  25  86 N20       29.83R WCI  15
INTL FALLS     CLOUDY    33  30  88 N9G21     29.71R WCI  25
WASKISH        CLOUDY    32  32 100 N10G20    29.73R WCI  24
BIG FORK       DRIZZLE   37  36  93 N7        29.67R
LONGVILLE      CLOUDY    39  37  93 N8        29.63S
GRAND RAPIDS     N/A     42  37  82 N15       29.66R
CRANE LAKE     CLOUDY    37  36  93 N8        29.69R
ORR            CLOUDY    37  34  87 CALM      29.65R
COOK           CLOUDY    39  36  87 N5        29.65R
WALKER         CLOUDY    36  34  92 N14       29.65S
$$
MNZ012-019>021-037-251600-
   Northeast Minnesota

CITY           SKY/WX    TMP DP  RH WIND       PRES   REMARKS
DULUTH         CLOUDY    50  43  77 E12       29.57F
ELY            CLOUDY    39  39 100 CALM      29.63S
HIBBING        CLOUDY    41  39  93 N10       29.61S
EVELETH        CLOUDY    42  38  85 N7        29.62R
DULUTH HARBOR  CLOUDY    43  39  87 E15       29.61R
TWO HARBORS    MOSUNNY   50  43  76 E7        29.57S
SILVER BAY     PTSUNNY   46  39  76 N6        29.58F
GRAND MARAIS     N/A     43  40  89 NE3       29.63S
G MARAIS ARPRT LGT RAIN  43  36  75 N6        29.63S
$$
MNZ029>031-032-039>041-046>048-054>057-064-251600-
   West Central Minnesota

CITY           SKY/WX    TMP DP  RH WIND       PRES   REMARKS
FERGUS FALLS   CLOUDY    37  37 100 N13       29.66R
WHEATON        CLOUDY    36  32  87 NW17G30   29.69R
MORRIS         CLOUDY    37  37 100 N21       29.61R
ALEXANDRIA     CLOUDY    42  41  96 N16       29.60R
ELBOW LAKE     CLOUDY    39  37  94 N15       29.63R
WADENA         CLOUDY    39  37  93 N17       29.61R
GLENWOOD       CLOUDY    45  41  87 N13       29.58R
APPLETON       CLOUDY    37  36  93 N10G18    29.63R
BENSON         CLOUDY    41  37  87 N10       29.62R FOG
ORTONVILLE     CLOUDY    36  32  87 N22       29.65R
MADISON        CLOUDY    37  37 100 NW17      29.65R
WILLMAR        CLOUDY    45  45 100 N13       29.59R
$$
MNZ033>034-036-042>043-049>051-058-059-251600-
   Central Minnesota

CITY           SKY/WX    TMP DP  RH WIND       PRES   REMARKS
ST CLOUD       PTSUNNY   51  43  74 N12       29.54R
SAUK CENTRE    CLOUDY    44  39  85 N12       29.58R
PAYNESVILLE    CLOUDY    47  44  90 N8        29.56R
AITKIN         CLOUDY    46  37  71 N10G17    29.58R
PINE RIVER     CLOUDY    41  37  87 N17G26    29.65R
BRAINERD       CLOUDY    47  39  74 N15       29.59R
STAPLES        CLOUDY    41  37  87 N13G18    29.60R
LONG PRAIRIE   CLOUDY    43  37  81 NW10G18   29.58R
LITTLE FALLS   CLOUDY    46  39  76 N6        29.57R
LITCHFIELD     CLOUDY    52  46  82 VRB8      29.55R
BUFFALO        CLOUDY    53  47  78 W5        29.54R
MAPLE LAKE     CLOUDY    55  47  74 NW6       29.55R
HUTCHINSON     CLOUDY    49  47  92 NW8       29.56R
$$
MNZ037-044-045-052-053-251600-
   East Central Minnesota

CITY           SKY/WX    TMP DP  RH WIND       PRES   REMARKS
PRINCETON      MOSUNNY   55  45  67 N3        29.53R
MORA           CLOUDY    50  37  62 N6        29.55S
CAMBRIDGE      CLOUDY    57  45  62 CALM      29.51R
RUSH CITY      CLOUDY    56  44  65 N6        29.53R
MOOSE LAKE     PTSUNNY   46  41  81 NE9       29.55S
HINCKLEY       FAIR      52  41  66 N8        29.54S
CLOQUET        CLOUDY    46  39  76 E7        29.58R
MCGREGOR       CLOUDY    48  43  81 N8        29.59R
$$
MNZ071>073-080-081-089-090-097-098-251600-
   Southwest Minnesota

CITY           SKY/WX    TMP DP  RH WIND       PRES   REMARKS
MONTEVIDEO     CLOUDY    37  37 100 N17       29.62R FOG
GRANITE FALLS  CLOUDY    39  38  94 NW15      29.64R FOG
CANBY          CLOUDY    37  36  96 NW12      29.65R FOG
MARSHALL       CLOUDY    36  35  96 N22       29.63R
REDWOOD FALLS  CLOUDY    40  37  89 NW12G20   29.59R
OLIVIA         CLOUDY    39  37  93 NW15      29.58R FOG
PIPESTONE      CLOUDY    37  34  87 N9        29.62R
WINDOM         CLOUDY    39  37  93 NW14      29.60R
WORTHINGTON    CLOUDY    38  37  97 N16       29.60R
JACKSON        CLOUDY    39  37  93 NW12      29.60R FOG
TRACY          CLOUDY    37  37 100 N14G22    29.61S FOG
SLAYTON        CLOUDY    36  36  99 NW14      29.61S FOG
$$
MNZ065>067-074>077-082>085-091>093-251600-
   South Central Minnesota

CITY           SKY/WX    TMP DP  RH WIND       PRES   REMARKS
MANKATO        CLOUDY    42  40  92 NW8       29.56S FOG
NEW ULM        CLOUDY    43  39  87 NW14      29.57S
ST JAMES       CLOUDY    41  39  93 W13       29.59R
FAIRMONT       CLOUDY    41  39  93 NW12      29.58R
GLENCOE        CLOUDY    48  48  99 W8        29.55R
FARIBAULT      CLOUDY    48  45  87 W6        29.55S
OWATONNA       CLOUDY    52  45  76 W5        29.55S
WASECA         CLOUDY    45  39  81 W5        29.57S
ALBERT LEA     PTSUNNY   54  43  66 N3        29.53F
$$
MNZ078>079-086>088-094>096-251600-
   Southeast Minnesota

CITY           SKY/WX    TMP DP  RH WIND       PRES   REMARKS
ROCHESTER      CLOUDY    63  41  44 S12       29.55S
RED WING       PTSUNNY   64  36  34 SE3       29.53S
STANTON        CLOUDY    56  46  70 W5        29.53S
DODGE CENTER   PTSUNNY   61  41  48 SW12      29.54S
WINONA         MOSUNNY   70  41  35 S7        29.55S
AUSTIN         CLOUDY    61  43  51 S8        29.53F
PRESTON        MOSUNNY   61  40  45 S9        29.55F
$$
ABBREVIATIONS USED IN REMARKS
   TC - TEMPERATURES IN CELSIUS
  WCI - WIND CHILL INDEX
   HX - HEAT INDEX
  VSB - VISIBILITY
$$




USA.gov is the U.S. government's official web portal to all federal, state and local government web resources and services.